Location: Fort Worth, Tx
(32.7431°N, 97.3695°W)
Time: 22:02:45
(UTC-05:00)

Tiros 1 - Pass Details

Date: 04 October 2024
Orbit: 622 x 654 km, 48.4° (Epoch: 05 November)

Event Time Altitude Azimuth Distance (km) Brightness Sun altitude
Rises 16:13:09 0° 315° (NW) 2,897 10.5 43.6°
Reaches altitude 10° 16:15:37 10° 324° (NW) 1,988 9.7 43.2°
Maximum altitude 16:19:52 37° 32° (NNE) 964 8.0 42.6°
Drops below altitude 10° 16:24:06 10° 100° (E) 1,983 9.5 42.0°
Sets 16:26:33 0° 109° (ESE) 2,890 10.3 41.6°
